Baku, Azerbaijan

11:41 AM +04 on December 15, 2018 (GMT +0400)
Bina

Weather History for UBBB - March, 2018

Change the Weather History Date:

Saturday, March 17, 2018

  Actual Average (WUND) Record (WUND)
Temperature  
Mean Temperature 44 °F -  
Max Temperature 45 °F - - (-1)
Min Temperature 42 °F - - (-1)
Degree Days  
Heating Degree Days 22    
Moisture  
Dew Point 41 °F    
Average Humidity 88    
Maximum Humidity 93    
Minimum Humidity 79    
Precipitation  
Precipitation 0.04 in - - ()
Sea Level Pressure  
Sea Level Pressure 30.00 in    
Wind  
Wind Speed 20 mph ()    
Max Wind Speed 32 mph    
Max Gust Speed 43 mph    
Visibility 6.1 miles    
Events Rain    
Averages and records for this station are not official NWS values.
T = Trace of Precipitation, MM = Missing Value Source: Averaged Metar Reports

Daily Weather History Graph

Daily Weather History Graph

Search for Another Location

Airport or City:

Astronomy

Mar. 17, 2018 Rise Set
Actual Time 6:48 AM +04 6:48 PM +04
Civil Twilight 6:21 AM +04 7:15 PM +04
Nautical Twilight 5:49 AM +04 7:47 PM +04
Astronomical Twilight 5:17 AM +04 8:19 PM +04
Moon 6:56 AM +04 (3/17) 6:42 PM +04 (3/17)
Length of Visible Light 12h 54m
Length of Day
11h 59m
Waning Crescent, 0% of the Moon is Illuminated
Mar 17
Waning Crescent
Mar 17
New
Mar 24
First Quarter
Mar 31
Full
Apr 8
Last Quarter

Hourly Weather History & Observations

Time (+04) Temp. Windchill Dew Point Humidity Pressure Visibility Wind Dir Wind Speed Gust Speed Precip Events Conditions
12:00 AM 44.6 °F 36.1 °F 41.0 °F 87% 29.95 in - NNW 21.9 mph - N/A   Clear
12:30 AM 44.6 °F 35.5 °F 41.0 °F 87% 29.95 in - NNW 25.3 mph - N/A   Clear
1:00 AM 43 °F - 40 °F 86% 29.94 in 6 mi NW 20.1 mph - -  
1:00 AM 42.8 °F 33.1 °F 41.0 °F 93% 29.92 in 6.2 mi NNW 25.3 mph - N/A   Mostly Cloudy
1:30 AM 42.8 °F 33.5 °F 41.0 °F 93% 29.95 in 6.2 mi North 23.0 mph - N/A   Scattered Clouds
2:00 AM 44.6 °F 34.4 °F 41.0 °F 87% 29.95 in 6.2 mi North 32.2 mph - N/A   Mostly Cloudy
2:30 AM 44.6 °F 34.6 °F 41.0 °F 87% 29.95 in 6.2 mi NNW 31.1 mph 42.6 mph N/A   Mostly Cloudy
3:00 AM 44.6 °F 35.3 °F 41.0 °F 87% 29.95 in 6.2 mi NNW 26.5 mph 38.0 mph N/A   Mostly Cloudy
3:30 AM 44.6 °F 35.3 °F 41.0 °F 87% 29.95 in 6.2 mi NNW 26.5 mph 38.0 mph N/A   Mostly Cloudy
4:00 AM 43 °F - 40 °F 84% 29.94 in 6 mi NW 20.1 mph - -   Mostly Cloudy
4:00 AM 44.6 °F 35.1 °F 41.0 °F 87% 29.92 in 6.2 mi NNW 27.6 mph - N/A   Mostly Cloudy
4:30 AM 44.6 °F 35.1 °F 41.0 °F 87% 29.92 in - NNW 27.6 mph - N/A   Clear
5:00 AM 44.6 °F 35.9 °F 41.0 °F 87% 29.95 in - NNW 23.0 mph 34.5 mph N/A   Clear
5:30 AM 44.6 °F 35.3 °F 41.0 °F 87% 29.95 in - NNW 26.5 mph 38.0 mph N/A   Clear
6:00 AM 44.6 °F 35.5 °F 41.0 °F 87% 29.95 in - NNW 25.3 mph 36.8 mph N/A   Clear
6:30 AM 44.6 °F 35.7 °F 41.0 °F 87% 29.98 in - NNW 24.2 mph 35.7 mph N/A   Clear
7:00 AM 44 °F - 40 °F 79% 29.97 in 6 mi NNW 22.4 mph - -   Mostly Cloudy
7:00 AM 44.6 °F 35.5 °F 41.0 °F 87% 29.95 in 6.2 mi NNW 25.3 mph 36.8 mph N/A   Mostly Cloudy
7:30 AM 44.6 °F 35.5 °F 41.0 °F 87% 29.98 in 6.2 mi NNW 25.3 mph 36.8 mph N/A   Mostly Cloudy
8:00 AM 44.6 °F 35.5 °F 42.8 °F 93% 29.98 in 6.2 mi NNW 25.3 mph 36.8 mph N/A   Mostly Cloudy
8:30 AM 44.6 °F 35.1 °F 42.8 °F 93% 29.98 in 6.2 mi NNW 27.6 mph 39.1 mph N/A Rain Light Rain Showers
9:00 AM 46.4 °F 38.3 °F 42.8 °F 87% 30.01 in 6.2 mi NNW 23.0 mph 34.5 mph N/A   Mostly Cloudy
9:30 AM 46.4 °F 38.3 °F 42.8 °F 87% 30.01 in 6.2 mi NNW 23.0 mph 34.5 mph N/A   Mostly Cloudy
10:00 AM 46 °F - 42 °F 83% 30.02 in 6 mi NW 26.8 mph - -   Overcast
10:00 AM 46.4 °F 38.3 °F 42.8 °F 87% 30.01 in 6.2 mi North 23.0 mph 34.5 mph N/A   Mostly Cloudy
10:30 AM 46.4 °F 37.2 °F 42.8 °F 87% 30.01 in 6.2 mi North 29.9 mph - N/A   Mostly Cloudy
11:00 AM 46.4 °F 38.3 °F 42.8 °F 87% 30.01 in 6.2 mi North 23.0 mph 34.5 mph N/A   Overcast
11:30 AM 46.4 °F 38.3 °F 42.8 °F 87% 30.01 in 6.2 mi North 23.0 mph 34.5 mph N/A   Overcast
12:00 PM 46.4 °F 38.1 °F 42.8 °F 87% 30.01 in 6.2 mi North 24.2 mph 35.7 mph N/A   Overcast
12:30 PM 46.4 °F 37.2 °F 42.8 °F 87% 30.01 in 6.2 mi North 29.9 mph - N/A   Overcast
1:00 PM 45 °F - 42 °F 85% 30.03 in 6 mi NW 22.4 mph - -   Overcast
1:00 PM 44.6 °F 35.3 °F 42.8 °F 93% 30.01 in 6.2 mi North 26.5 mph - N/A   Overcast
1:30 PM 44.6 °F 34.7 °F 42.8 °F 93% 30.01 in 6.2 mi NNW 29.9 mph - N/A   Overcast
2:00 PM 44.6 °F 35.7 °F 41.0 °F 87% 30.01 in 6.2 mi NNW 24.2 mph - N/A   Overcast
2:30 PM 44.6 °F 36.1 °F 42.8 °F 93% 30.01 in 6.2 mi NNW 21.9 mph - N/A Rain Light Rain Showers
3:00 PM 44.6 °F 36.6 °F 42.8 °F 93% 30.01 in 6.2 mi NW 19.6 mph - N/A Rain Light Rain Showers
3:30 PM 44.6 °F 37.4 °F 42.8 °F 93% 30.01 in 5.0 mi NW 16.1 mph - N/A Rain Light Rain Showers
4:00 PM 44 °F - 41 °F 86% 30.03 in 6 mi WNW 15.7 mph - - Rain Light Rain
4:00 PM 44.6 °F 38.4 °F 42.8 °F 93% 30.04 in 6.2 mi NW 12.7 mph - N/A Rain Light Rain Showers
4:30 PM 44.6 °F 37.8 °F 41.0 °F 87% 30.04 in 6.2 mi NW 15.0 mph - N/A   Overcast
5:00 PM 44.6 °F 37.8 °F 41.0 °F 87% 30.04 in 6.2 mi NNW 15.0 mph - N/A   Overcast
5:30 PM 44.6 °F 37.4 °F 41.0 °F 87% 30.01 in 6.2 mi NW 16.1 mph - N/A   Overcast
6:00 PM 44.6 °F 38.1 °F 41.0 °F 87% 30.04 in 6.2 mi NNW 13.8 mph - N/A   Overcast
6:30 PM 44.6 °F 37.8 °F 41.0 °F 87% 30.04 in 6.2 mi NNW 15.0 mph - N/A   Overcast
7:00 PM 43 °F - 39 °F 81% 30.04 in 6 mi WNW 11.2 mph - -   Overcast
7:00 PM 44.6 °F 38.1 °F 41.0 °F 87% 30.04 in 6.2 mi NW 13.8 mph - N/A   Overcast
7:30 PM 42.8 °F 36.6 °F 41.0 °F 93% 30.04 in 6.2 mi NW 11.5 mph - N/A   Overcast
8:00 PM 42.8 °F 37.0 °F 41.0 °F 93% 30.04 in 6.2 mi NNW 10.4 mph - N/A   Overcast
8:30 PM 42.8 °F 37.0 °F 41.0 °F 93% 30.04 in 6.2 mi NW 10.4 mph - N/A   Overcast
9:00 PM 42.8 °F 38.0 °F 39.2 °F 87% 30.04 in 6.2 mi NW 8.1 mph - N/A   Overcast
9:30 PM 42.8 °F 38.0 °F 39.2 °F 87% 30.04 in 6.2 mi NW 8.1 mph - N/A   Overcast
10:00 PM 43 °F - 39 °F 80% 30.03 in 6 mi WNW 6.7 mph - -   Overcast
10:00 PM 42.8 °F 38.0 °F 39.2 °F 87% 30.04 in 6.2 mi NW 8.1 mph - N/A   Mostly Cloudy
10:30 PM 42.8 °F 39.3 °F 39.2 °F 87% 30.04 in 6.2 mi West 5.8 mph - N/A   Overcast
11:00 PM 42.8 °F 39.3 °F 39.2 °F 87% 30.01 in 6.2 mi WNW 5.8 mph - N/A   Overcast
11:30 PM 42.8 °F 39.3 °F 41.0 °F 93% 30.01 in 6.2 mi NW 5.8 mph - N/A   Overcast